Location: New Frontier Mobile Home Park
(32.8448°N, 116.9675°W)
Time: 23:12:12
(UTC+00:00)

H-2A R/B - Pass Details

Date: 14 July 2020
Orbit: 733 x 837 km, 98.2° (Epoch: 05 August)

Event Time Altitude Azimuth Distance (km) Brightness Sun altitude
Rises 03:18:12 0° 170° (S) 3,369 4.9 -4.7°
Reaches altitude 10° 03:20:33 10° 171° (S) 2,441 4.2 -5.1°
Maximum altitude 03:25:59 78° 258° (WSW) 858 2.4 -6.1°
Drops below altitude 10° 03:31:25 10° 345° (NNW) 2,436 5.4 -7.1°
Sets 03:33:46 0° 346° (NNW) 3,362 6.1 -7.5°
